HB9ADJ Weather Reports


Display with metric or nautical units.
time (UTC)temp
F
wind
direction
speed
MPH
gust
MPH
rain 1hr
in
rain 24hr
in
rain mn
in
humidity
%
barometer
mb
20260505074537 55 152 0.0 2.0 0.00 0.22 0.08 93 1009.6
20260505073038 54 0 0.0 2.0 0.00 0.22 0.08 94 1009.8
20260505071545 54 205 0.0 5.0 0.00 0.22 0.08 95 1009.9
20260505070035 54 188 0.0 3.0 0.00 0.22 0.08 95 1010.0
20260505064540 53 0 0.0 3.0 0.00 0.22 0.08 95 1010.2
20260505063040 53 0 0.0 2.0 0.00 0.22 0.08 95 1010.5
20260505061536 53 176 0.0 2.0 0.01 0.22 0.08 95 1010.7
20260505060037 53 170 0.0 2.0 0.01 0.22 0.08 94 1011.2
20260505054538 52 0 0.0 0.0 0.00 0.21 0.07 94 1011.4
20260505053036 52 0 0.0 0.0 0.01 0.21 0.07 94 1011.3
20260505051537 52 0 0.0 1.0 0.02 0.20 0.07 94 1011.5
20260505041538 52 0 0.0 0.0 0.03 0.18 0.04 93 1011.6
20260505040039 52 0 0.0 0.0 0.02 0.16 0.03 92 1011.7
20260505034536 53 0 0.0 1.0 0.00 0.14 0.00 92 1011.8
20260505033039 53 0 0.0 1.0 0.00 0.14 0.00 91 1011.9
20260505031552 53 15 1.0 4.0 0.00 0.14 0.00 91 1012.0
20260505030041 53 19 1.0 4.0 0.00 0.14 0.00 91 1011.9
20260505024547 53 322 1.0 6.0 0.00 0.14 0.00 91 1011.8
20260505023041 53 352 6.0 11.0 0.00 0.14 0.00 91 1011.6
20260505021536 53 23 10.0 16.0 0.00 0.14 0.00 92 1011.5
20260505020035 53 32 8.0 14.0 0.00 0.14 0.00 91 1011.7
20260505014557 54 5 10.0 15.0 0.00 0.14 0.00 89 1011.6
20260505013038 53 8 9.0 15.0 0.00 0.14 0.00 88 1011.9
20260505011547 52 356 7.0 11.0 0.00 0.14 0.00 93 1011.9
20260505010037 51 160 0.0 3.0 0.00 0.14 0.00 95 1011.8
20260505004536 51 0 0.0 0.0 0.00 0.13 0.00 95 1011.8
20260505003034 51 0 0.0 0.0 0.00 0.13 0.00 95 1012.1
20260505001542 50 0 0.0 0.0 0.00 0.13 0.00 94 1012.2
20260505000037 51 0 0.0 1.0 0.00 0.13 0.00 94 1012.2
20260504234536 50 0 0.0 1.0 0.00 0.13 0.00 94 1012.3
20260504233040 51 0 0.0 0.0 0.00 0.13 0.00 94 1012.5
20260504231535 51 0 0.0 1.0 0.00 0.13 0.00 94 1012.6
20260504230035 51 0 0.0 0.0 0.00 0.13 0.00 94 1012.7
20260504224537 51 0 0.0 0.0 0.00 0.13 0.00 94 1012.9
20260504223034 51 0 0.0 1.0 0.00 0.13 0.00 93 1013.1
20260504221533 52 0 0.0 2.0 0.00 0.13 0.00 93 1013.0
20260504220035 52 347 2.0 4.0 0.00 0.13 0.00 94 1013.3
20260504214532 52 319 2.0 4.0 0.00 0.13 0.13 94 1013.3
20260504213034 52 309 1.0 2.0 0.00 0.13 0.13 94 1013.5
20260504211537 52 0 0.0 3.0 0.00 0.13 0.13 94 1013.3
20260504210053 52 0 0.0 0.0 0.00 0.13 0.13 93 1013.3
20260504204552 52 0 0.0 0.0 0.00 0.13 0.13 93 1013.5
20260504203038 51 0 0.0 0.0 0.00 0.13 0.13 93 1013.9
20260504201539 52 0 0.0 0.0 0.00 0.13 0.13 92 1014.1
20260504200038 52 0 0.0 0.0 0.00 0.13 0.13 92 1014.3
20260504194534 53 0 0.0 0.0 0.00 0.13 0.13 92 1014.3
20260504193035 53 0 0.0 2.0 0.00 0.13 0.13 92 1014.4
20260504191534 53 4 1.0 3.0 0.00 0.13 0.13 91 1014.5
20260504190032 54 348 0.0 3.0 0.00 0.13 0.13 91 1014.4
20260504184533 54 342 1.0 4.0 0.00 0.13 0.13 91 1014.6
20260504183037 54 342 1.0 3.0 0.00 0.13 0.13 90 1014.6
20260504181533 54 359 1.0 4.0 0.00 0.13 0.13 91 1014.6
20260504180036 54 352 1.0 3.0 0.00 0.13 0.13 91 1014.9
20260504174537 54 0 0.0 0.0 0.00 0.13 0.13 90 1014.9
20260504173034 54 310 1.0 4.0 0.00 0.13 0.13 90 1015.0
20260504171539 54 283 0.0 6.0 0.00 0.13 0.13 90 1015.0
20260504081536 59 341 5.0 10.0 0.00 0.00 0.00 81 1014.6